Huntsville, AL

10:45 AM CST on January 16, 2017 (GMT -0600)
Huntsville International

Weather History for KHSV - October, 2014

Change the Weather History Date:

Tuesday, October 14, 2014

  Actual Average Record
Temperature  
Mean Temperature 64 °F 63 °F  
Max Temperature 70 °F 75 °F 89 °F (1928)
Min Temperature 58 °F 52 °F 34 °F (1977)
Degree Days  
Heating Degree Days 1 4  
Month to date heating degree days 20 39  
Since 1 July heating degree days 20 52  
Cooling Degree Days 0 2  
Month to date cooling degree days 92 46  
Year to date cooling degree days 2014 1916  
Growing Degree Days 14 (Base 50)    
Moisture  
Dew Point 59 °F    
Average Humidity 80    
Maximum Humidity 100    
Minimum Humidity 59    
Precipitation  
Precipitation 0.63 in 0.12 in 1.70 in (1909)
Month to date precipitation 5.94 1.56  
Year to date precipitation 44.58 41.60  
Snow  
Snow 0.00 in - - ()
Month to date snowfall 0.0  
Since 1 July snowfall 0.0  
Since 1 September snowfall 0.0  
Snow Depth 0.00 in    
Sea Level Pressure  
Sea Level Pressure 29.74 in    
Wind  
Wind Speed 13 mph (SW)    
Max Wind Speed 22 mph    
Max Gust Speed 30 mph    
Visibility 8 miles    
Events Rain    
T = Trace of Precipitation, MM = Missing Value Source: NWS Daily Summary

Daily Weather History Graph

Daily Weather History Graph

Search for Another Location

Airport or City:

Trip Planner

Search our weather history database for the weather conditions in past years. The results will help you decide how hot, cold, wet, or windy it might be!

Date:

Astronomy

Oct. 14, 2014 Rise Set
Actual Time 6:51 AM CDT 6:13 PM CDT
Civil Twilight 6:26 AM CDT 6:39 PM CDT
Nautical Twilight 5:57 AM CDT 7:08 PM CDT
Astronomical Twilight 5:28 AM CDT 7:37 PM CDT
Moon 11:25 PM CDT (10/14) 12:45 PM CDT (10/14)
Length of Visible Light 12h 12m
Length of Day
11h 21m
Waning Gibbous, 61% of the Moon is Illuminated
Oct 14
Waning Gibbous
Oct 15
Last Quarter
Oct 23
New
Oct 30
First Quarter
Nov 6
Full

Hourly Weather History & Observations

Time (CDT) Temp. Dew Point Humidity Pressure Visibility Wind Dir Wind Speed Gust Speed Precip Events Conditions
12:53 AM 66.9 °F 64.9 °F 93% 29.75 in 6.0 mi ESE 10.4 mph - 0.22 in Rain Rain
1:53 AM 66.9 °F 66.0 °F 97% 29.71 in 10.0 mi SSE 9.2 mph - 0.10 in Rain Light Rain
2:12 AM 68.0 °F 66.2 °F 94% 29.73 in 10.0 mi SSE 13.8 mph - 0.01 in Rain Light Rain
2:53 AM 68.0 °F 66.0 °F 93% 29.68 in 10.0 mi SSE 15.0 mph 23.0 mph 0.01 in   Overcast
3:53 AM 69.8 °F 64.4 °F 83% 29.66 in 10.0 mi SSE 15.0 mph - N/A   Overcast
4:05 AM 69.8 °F 64.4 °F 83% 29.67 in 10.0 mi SSE 16.1 mph 25.3 mph 0.00 in Rain Light Rain
4:11 AM 69.8 °F 64.4 °F 83% 29.64 in 2.0 mi SSE 16.1 mph 23.0 mph 0.03 in Rain Heavy Rain
4:18 AM 69.8 °F 64.4 °F 83% 29.65 in 1.5 mi SSE 13.8 mph 23.0 mph 0.20 in Rain Heavy Rain
4:22 AM 69.8 °F 64.4 °F 83% 29.66 in 4.0 mi SSE 13.8 mph - 0.21 in Rain Light Rain
4:53 AM 69.1 °F 66.0 °F 90% 29.63 in 4.0 mi South 12.7 mph - 0.22 in Rain Rain
5:00 AM 69.8 °F 66.2 °F 88% 29.65 in 2.5 mi South 15.0 mph - 0.04 in Rain Heavy Rain
5:06 AM 69.8 °F 66.2 °F 88% 29.65 in 3.0 mi South 13.8 mph - 0.07 in Rain Heavy Rain
5:22 AM 68.0 °F 66.2 °F 94% 29.68 in 2.0 mi West 15.0 mph 21.9 mph 0.08 in Rain Heavy Rain
5:29 AM 64.4 °F 62.6 °F 94% 29.68 in 1.2 mi West 15.0 mph 26.5 mph N/A Rain Heavy Rain
5:34 AM 64.4 °F 62.6 °F 94% 29.69 in 3.0 mi West 20.7 mph 29.9 mph 0.25 in Rain Light Rain
5:49 AM 64.4 °F 62.6 °F 94% 29.70 in 8.0 mi West 15.0 mph 23.0 mph 0.25 in   Overcast
5:50 AM 64.0 °F 62.1 °F 93% 29.68 in 8.0 mi WSW 12.7 mph 23.0 mph 0.25 in Rain Light Rain
6:53 AM 63.0 °F 61.0 °F 93% 29.70 in 9.0 mi SW 10.4 mph - 0.05 in Rain Light Rain
7:53 AM 63.0 °F 61.0 °F 93% 29.73 in 10.0 mi SW 12.7 mph 20.7 mph 0.00 in   Mostly Cloudy
8:53 AM 63.0 °F 57.9 °F 84% 29.75 in 10.0 mi WSW 18.4 mph 24.2 mph N/A   Mostly Cloudy
9:53 AM 64.4 °F 57.2 °F 77% 29.77 in 10.0 mi SW 11.5 mph - N/A   Mostly Cloudy
10:53 AM 66.0 °F 55.9 °F 70% 29.77 in 10.0 mi WSW 12.7 mph 20.7 mph N/A   Mostly Cloudy
11:24 AM 64.4 °F 55.4 °F 73% 29.79 in 10.0 mi WSW 15.0 mph 21.9 mph N/A   Mostly Cloudy
11:53 AM 64.9 °F 55.9 °F 73% 29.77 in 10.0 mi WSW 10.4 mph - 0.00 in Rain Light Rain
12:53 PM 66.9 °F 54.0 °F 63% 29.76 in 10.0 mi SW 18.4 mph 23.0 mph 0.00 in   Mostly Cloudy
1:53 PM 68.0 °F 54.0 °F 61% 29.76 in 10.0 mi SSW 15.0 mph 24.2 mph N/A   Mostly Cloudy
2:53 PM 64.0 °F 54.0 °F 70% 29.77 in 10.0 mi SW 11.5 mph 21.9 mph 0.00 in   Overcast
3:53 PM 64.4 °F 53.6 °F 68% 29.78 in 10.0 mi SW 18.4 mph - N/A   Mostly Cloudy
4:53 PM 64.9 °F 53.1 °F 65% 29.79 in 10.0 mi SW 13.8 mph - N/A   Mostly Cloudy
5:53 PM 64.0 °F 51.1 °F 63% 29.82 in 10.0 mi WSW 12.7 mph 21.9 mph 0.00 in   Mostly Cloudy
6:53 PM 63.0 °F 52.0 °F 67% 29.84 in 10.0 mi WSW 12.7 mph 21.9 mph N/A   Mostly Cloudy
7:53 PM 62.1 °F 52.0 °F 70% 29.86 in 10.0 mi WSW 18.4 mph 24.2 mph N/A   Overcast
8:53 PM 61.0 °F 52.0 °F 72% 29.87 in 10.0 mi SW 9.2 mph 17.3 mph N/A   Mostly Cloudy
9:53 PM 60.1 °F 53.1 °F 78% 29.88 in 8.0 mi WSW 11.5 mph 25.3 mph 0.00 in Rain Light Rain
10:53 PM 60.1 °F 53.1 °F 78% 29.88 in 10.0 mi West 11.5 mph - 0.00 in   Mostly Cloudy
11:53 PM 59.0 °F 52.0 °F 78% 29.88 in 10.0 mi WSW 10.4 mph - N/A   Mostly Cloudy